QPF
0.00 0.00 0.00 0.00 0.00 0.00 0.00 0.00 0.00 0.00 0.00 0.00 0.00 0.00 0.00 0.00 0.00 0.00 0.00 0.00 0.00 0.00 0.00 0.00 0.00 0.00 0.00 0.00 0.00 0.00 0.00 0.00 0.00 0.00 0.00 0.00 0.00 0.00 0.00 0.00 0.00 0.00 0.00
0.00 0.00 0.00 0.00 0.00 0.00 0.00 0.00 0.00 0.00 0.00 0.00 0.00 0.00 0.00 0.00 0.00 0.00 0.00 0.00 0.00 0.00 0.00 0.00 0.00 0.00 0.00 0.00 0.00 0.00 0.00 0.00 0.00 0.00 0.00 0.00 0.00 0.00 0.00 0.00 0.00 0.00 0.00
0.00 0.00 0.00 0.00 0.00 0.00 0.00 0.00 0.00 0.00 0.00 0.00 0.00 0.00 0.00 0.00 0.00 0.00 0.00 0.00 0.00 0.00 0.00 0.00 0.00 0.00 0.00 0.00 0.00 0.00 0.00 0.00 0.00 0.00 0.00 0.00 0.00 0.00 0.00 0.00 0.00 0.00 0.00
0.00 0.00 0.00 0.00 0.00 0.00 0.00 0.00 0.00 0.00 0.00 0.00 0.00 0.00 0.00 0.00 0.00 0.00 0.00 0.00 0.00 0.00 0.00 0.00 0.00 0.00 0.00 0.00 0.00 0.00 0.00 0.00 0.00 0.00 0.00 0.00 0.00 0.00 0.00 0.00 0.00 0.00 0.00
0.00 0.00 0.00 0.00 0.00 0.00 0.00 0.00 0.00 0.00 0.00 0.00 0.00 0.00 0.00 0.00 0.00 0.00 0.00 0.00 0.00 0.00 0.00 0.00 0.00 0.00 0.00 0.00 0.00 0.00 0.00 0.00 0.00 0.00 0.00 0.00 0.00 0.00 0.00 0.00 0.00 0.00 0.00
0.00 0.00 0.00 0.00 0.00 0.00 0.00 0.00 0.00 0.00 0.00 0.00 0.00 0.00 0.00 0.00 0.00 0.00 0.00 0.00 0.00 0.00 0.00 0.00 0.00 0.00 0.00 0.00 0.00 0.00 0.00 0.00 0.00 0.00 0.00 0.00 0.00 0.00 0.00 0.00 0.00 0.00 0.00
0.00 0.00 0.00 0.00 0.00 0.00 0.00 0.00 0.00 0.00 0.00 0.00 0.00 0.00 0.00 0.00 0.00 0.00 0.00 0.00 0.00 0.00 0.00 0.00 0.00 0.00 0.00 0.00 0.00 0.00 0.00 0.00 0.00 0.00 0.00 0.00 0.00 0.00 0.00 0.00 0.00 0.00 0.00
0.00 0.00 0.00 0.00 0.00 0.00 0.00 0.00 0.00 0.00 0.00 0.00 0.00 0.00 0.00 0.00 0.00 0.00 0.00 0.00 0.00 0.00 0.00 0.00 0.00 0.00 0.00 0.00 0.00 0.00 0.00 0.00 0.00 0.00 0.00 0.00 0.00 0.00 0.00 0.00 0.00 0.00 0.00
0.00 0.00 0.00 0.00 0.00 0.00 0.00 0.00 0.00 0.00 0.00 0.00 0.00 0.00 0.00 0.00 0.00 0.00 0.00 0.00 0.00 0.00 0.00 0.00 0.00 0.00 0.00 0.00 0.00 0.00 0.00 0.00 0.00 0.00 0.00 0.00 0.00 0.00 0.00 0.00 0.00 0.00 0.00
0.00 0.00 0.00 0.00 0.00 0.00 0.00 0.00 0.00 0.00 0.00 0.00 0.00 0.00 0.00 0.00 0.00 0.00 0.00 0.00 0.00 0.00 0.00 0.00 0.00 0.00 0.00 0.00 0.00 0.00 0.00 0.00 0.00 0.00 0.00 0.00 0.00 0.00 0.00 0.00 0.00 0.00 0.00
0.00 0.00 0.00 0.00 0.00 0.00 0.00 0.00 0.00 0.00 0.00 0.00 0.00 0.00 0.00 0.00 0.00 0.00 0.00 0.00 0.00 0.00 0.00 0.00 0.00 0.00 0.00 0.00 0.00 0.00 0.00 0.00 0.00 0.00 0.00 0.00 0.00 0.00 0.00 0.00 0.00 0.00 0.00
0.00 0.00 0.00 0.00 0.00 0.00 0.00 0.00 0.00 0.00 0.00 0.00 0.00 0.00 0.00 0.00 0.00 0.00 0.00 0.00 0.00 0.00 0.00 0.00 0.00 0.00 0.00 0.00 0.00 0.01 0.00 0.00 0.00 0.00 0.00 0.00 0.00 0.00 0.00 0.00 0.00 0.00 0.00
0.00 0.00 0.00 0.00 0.00 0.00 0.00 0.00 0.00 0.00 0.00 0.00 0.00 0.00 0.00 0.00 0.00 0.00 0.00 0.00 0.00 0.00 0.00 0.00 0.00 0.00 0.00 0.00 0.00 0.00 0.00 0.00 0.00 0.00 0.00 0.00 0.00 0.00 0.00 0.00 0.00 0.00 0.00
0.00 0.00 0.00 0.00 0.00 0.00 0.00 0.00 0.00 0.00 0.00 0.00 0.00 0.00 0.00 0.00 0.00 0.00 0.00 0.00 0.00 0.00 0.00 0.00 0.00 0.00 0.00 0.00 0.00 0.00 0.00 0.00 0.00 0.01 0.00 0.00 0.00 0.00 0.00 0.00 0.00 0.01 0.01
0.00 0.00 0.00 0.00 0.00 0.00 0.00 0.00 0.00 0.00 0.00 0.00 0.00 0.00 0.00 0.00 0.00 0.00 0.00 0.00 0.00 0.00 0.00 0.00 0.00 0.00 0.00 0.00 0.00 0.00 0.00 0.00 0.00 0.00 0.00 0.00 0.01 0.01 0.00 0.00 0.00 0.01 0.01
0.00 0.00 0.00 0.00 0.00 0.00 0.00 0.00 0.00 0.00 0.00 0.00 0.00 0.00 0.00 0.00 0.00 0.00 0.00 0.00 0.00 0.00 0.00 0.00 0.00 0.00 0.00 0.00 0.00 0.00 0.00 0.00 0.00 0.00 0.00 0.00 0.01 0.00 0.00 0.00 0.00 0.00 0.00
0.00 0.00 0.00 0.00 0.00 0.00 0.00 0.00 0.00 0.00 0.00 0.00 0.00 0.00 0.00 0.00 0.00 0.00 0.00 0.00 0.00 0.00 0.00 0.00 0.00 0.00 0.00 0.00 0.00 0.00 0.00 0.00 0.00 0.00 0.00 0.00 0.00 0.01 0.01 0.01 0.00 0.00 0.00
0.00 0.00 0.00 0.00 0.00 0.00 0.00 0.00 0.00 0.00 0.00 0.00 0.00 0.00 0.00 0.00 0.00 0.00 0.00 0.00 0.00 0.00 0.00 0.00 0.00 0.00 0.00 0.00 0.01 0.01 0.01 0.01 0.01 0.01 0.01 0.01 0.01 0.01 0.01 0.00 0.00 0.00 0.01
0.00 0.00 0.00 0.00 0.00 0.00 0.00 0.00 0.00 0.00 0.00 0.00 0.00 0.00 0.00 0.00 0.00 0.00 0.00 0.00 0.00 0.00 0.00 0.00 0.00 0.00 0.01 0.01 0.01 0.01 0.01 0.01 0.01 0.02 0.02 0.01 0.01 0.01 0.01 0.01 0.01 0.01 0.02
0.00 0.00 0.00 0.00 0.00 0.00 0.00 0.00 0.00 0.00 0.00 0.00 0.00 0.00 0.00 0.00 0.00 0.00 0.00 0.00 0.00 0.00 0.00 0.00 0.00 0.00 0.00 0.00 0.00 0.00 0.00 0.00 0.00 0.00 0.01 0.00 0.00 0.00 0.01 0.01 0.01 0.01 0.01
0.00 0.00 0.00 0.00 0.00 0.00 0.00 0.00 0.00 0.00 0.00 0.00 0.00 0.00 0.00 0.00 0.00 0.00 0.00 0.00 0.00 0.00 0.00 0.00 0.00 0.00 0.01 0.01 0.01 0.00 0.00 0.00 0.00 0.00 0.01 0.00 0.00 0.01 0.01 0.01 0.01 0.01 0.01
0.00 0.00 0.00 0.00 0.00 0.00 0.00 0.00 0.00 0.00 0.00 0.00 0.00 0.00 0.00 0.00 0.00 0.00 0.00 0.00 0.00 0.00 0.00 0.00 0.00 0.00 0.01 0.01 0.01 0.00 0.00 0.00 0.01 0.01 0.01 0.01 0.01 0.01 0.00 0.00 0.00 0.00 0.00
0.00 0.00 0.00 0.00 0.00 0.00 0.00 0.00 0.00 0.00 0.00 0.00 0.00 0.00 0.00 0.00 0.00 0.00 0.00 0.00 0.00 0.00 0.00 0.00 0.00 0.00 0.00 0.00 0.00 0.00 0.01 0.00 0.01 0.01 0.01 0.01 0.01 0.00 0.00 0.01 0.01 0.01 0.00
0.00 0.00 0.00 0.00 0.00 0.00 0.00 0.00 0.00 0.00 0.00 0.00 0.00 0.00 0.00 0.00 0.00 0.00 0.00 0.00 0.00 0.00 0.00 0.00 0.00 0.00 0.00 0.00 0.00 0.01 0.01 0.01 0.00 0.00 0.00 0.01 0.01 0.01 0.01 0.01 0.01 0.01 0.01
0.00 0.00 0.00 0.00 0.00 0.00 0.00 0.00 0.00 0.00 0.00 0.00 0.00 0.00 0.00 0.00 0.00 0.00 0.00 0.00 0.00 0.00 0.00 0.00 0.00 0.00 0.00 0.00 0.00 0.00 0.00 0.00 0.00 0.00 0.00 0.00 0.00 0.00 0.00 0.00 0.00 0.01 0.00
0.00 0.00 0.00 0.00 0.00 0.00 0.00 0.00 0.00 0.00 0.00 0.00 0.00 0.00 0.00 0.00 0.00 0.00 0.00 0.00 0.00 0.00 0.00 0.00 0.00 0.00 0.00 0.00 0.00 0.00 0.00 0.00 0.00 0.00 0.00 0.01 0.00 0.00 0.00 0.00 0.00 0.00 0.00
MSLP
1016.03 1016.15 1016.31 1016.55 1016.94 1016.97 1017.72 1018.10 1018.61 1019.08 1019.29 1019.52 1019.91 1020.25 1020.78 1021.23 1021.63 1022.02 1022.14 1022.21 1022.65 1023.36 1023.72 1024.09 1024.47 1024.63 1024.92 1025.13 1025.51 1025.66 1025.63 1025.96 1026.27 1027.45 1027.60 1027.80 1027.50 1027.37 1027.30 1027.52 1027.61 1027.61 1027.69
1017.00 1016.73 1016.99 1017.41 1017.69 1018.13 1018.73 1019.04 1019.45 1019.84 1019.70 1020.01 1020.58 1020.94 1021.23 1021.42 1021.77 1021.99 1022.44 1022.85 1023.40 1023.84 1024.18 1024.45 1024.70 1025.00 1025.41 1025.61 1025.71 1025.96 1026.41 1026.43 1026.35 1027.03 1027.67 1027.63 1027.61 1027.38 1027.28 1027.52 1027.61 1027.47 1027.32
1017.43 1017.67 1017.83 1018.38 1018.57 1019.06 1019.38 1019.64 1019.95 1020.29 1020.12 1020.59 1021.13 1021.61 1021.79 1022.08 1022.24 1022.61 1022.87 1023.13 1023.62 1024.15 1024.45 1024.68 1024.88 1025.06 1025.44 1025.79 1026.15 1026.56 1026.95 1026.97 1026.87 1026.85 1027.42 1027.68 1027.63 1027.69 1027.47 1027.44 1027.29 1027.37 1027.33
1017.96 1018.17 1018.48 1018.95 1019.35 1019.81 1019.96 1020.03 1020.37 1020.59 1020.98 1021.31 1021.82 1022.33 1022.67 1022.95 1023.05 1023.10 1023.43 1023.82 1024.02 1024.27 1024.64 1024.69 1024.82 1025.19 1025.57 1025.95 1026.52 1026.89 1027.19 1027.20 1027.19 1027.32 1027.47 1027.73 1027.93 1027.97 1027.74 1027.39 1027.34 1027.18 1027.12
1018.40 1018.82 1019.12 1019.32 1019.75 1020.45 1020.67 1020.77 1021.18 1021.20 1021.70 1022.16 1022.74 1022.85 1023.30 1023.44 1023.50 1023.63 1023.97 1024.47 1024.74 1024.89 1025.13 1025.46 1025.53 1025.68 1025.68 1026.00 1026.21 1026.83 1027.04 1027.59 1027.52 1027.46 1027.62 1027.62 1027.54 1027.34 1027.38 1027.61 1027.32 1027.19 1026.44
1018.68 1019.21 1019.83 1020.29 1020.93 1021.10 1020.90 1021.13 1021.38 1021.79 1022.13 1022.58 1022.93 1023.33 1023.78 1023.97 1023.97 1024.17 1024.10 1024.45 1024.92 1025.11 1025.62 1025.66 1025.76 1026.08 1026.04 1026.28 1026.36 1026.71 1026.76 1027.38 1027.53 1027.57 1027.83 1027.54 1027.49 1027.24 1027.72 1027.74 1027.57 1026.97 1026.25
1018.92 1019.56 1020.01 1020.53 1021.00 1021.19 1021.14 1021.41 1021.85 1021.96 1022.13 1022.72 1023.46 1023.90 1024.27 1024.56 1024.59 1024.61 1024.75 1024.76 1025.05 1025.29 1025.83 1026.12 1026.25 1026.61 1026.49 1026.18 1026.72 1026.97 1027.27 1027.62 1027.79 1027.55 1027.72 1027.71 1027.90 1028.09 1028.19 1028.00 1027.39 1026.98 1026.45
1018.91 1019.49 1019.98 1020.46 1020.80 1021.00 1021.31 1021.80 1022.01 1022.23 1022.83 1023.57 1024.24 1024.48 1024.74 1024.97 1025.21 1025.33 1025.41 1025.08 1025.55 1025.89 1026.05 1026.29 1026.25 1026.83 1027.23 1026.92 1026.60 1026.99 1027.14 1027.33 1027.49 1027.78 1028.13 1028.53 1028.52 1028.38 1028.33 1027.91 1027.56 1027.06 1026.61
1018.63 1019.19 1019.78 1020.36 1020.78 1021.24 1021.62 1021.99 1022.43 1022.92 1023.49 1023.98 1024.57 1024.79 1024.81 1025.39 1025.67 1025.56 1025.28 1025.62 1026.06 1026.43 1026.61 1026.38 1026.73 1027.09 1027.72 1027.36 1027.00 1026.97 1027.04 1027.29 1028.03 1028.48 1028.85 1029.04 1028.96 1028.79 1028.52 1027.97 1027.21 1027.11 1026.73
1018.43 1019.05 1019.66 1020.11 1020.66 1021.26 1021.97 1022.59 1023.03 1023.49 1024.05 1024.54 1024.77 1024.85 1025.16 1025.44 1026.06 1026.16 1025.84 1025.89 1026.12 1026.35 1026.58 1027.00 1027.78 1027.41 1027.38 1027.10 1026.76 1026.96 1027.09 1027.63 1028.20 1028.44 1028.47 1028.60 1028.60 1028.37 1028.57 1027.94 1027.70 1027.44 1027.52
1018.80 1019.44 1020.06 1020.63 1021.12 1021.67 1022.25 1022.87 1023.33 1023.72 1024.21 1024.54 1024.77 1024.97 1025.13 1025.40 1026.08 1026.38 1026.30 1025.95 1026.16 1026.50 1026.84 1027.15 1027.27 1027.54 1027.30 1027.23 1027.30 1027.24 1027.46 1027.98 1028.60 1028.45 1028.40 1028.27 1027.93 1027.81 1027.72 1027.85 1027.89 1027.90 1027.84
1019.00 1019.72 1020.34 1020.87 1021.48 1022.03 1022.43 1022.96 1023.45 1023.92 1024.12 1024.40 1024.73 1025.02 1025.26 1025.53 1026.00 1026.26 1026.55 1026.51 1026.81 1026.59 1026.86 1027.17 1027.26 1027.55 1027.58 1027.62 1027.64 1027.73 1028.21 1028.47 1028.34 1028.30 1028.27 1028.16 1027.94 1027.78 1027.71 1027.72 1027.69 1027.70 1027.63
1018.65 1019.43 1020.22 1021.02 1021.82 1022.39 1022.80 1023.25 1023.56 1023.91 1024.04 1024.22 1024.48 1024.77 1025.11 1025.54 1025.85 1026.39 1026.53 1026.80 1026.86 1026.73 1026.85 1027.41 1027.68 1027.80 1028.03 1028.05 1028.05 1028.00 1028.35 1028.31 1028.41 1028.42 1028.32 1028.16 1028.17 1028.12 1027.97 1027.82 1027.71 1027.62 1027.57
1018.33 1019.14 1019.84 1020.41 1021.16 1021.88 1022.39 1022.89 1023.25 1023.51 1023.77 1024.04 1024.26 1024.54 1024.94 1025.39 1025.72 1026.09 1026.46 1026.73 1026.94 1026.97 1027.28 1027.35 1027.59 1027.88 1028.03 1028.15 1028.15 1028.27 1028.33 1028.47 1028.42 1028.29 1028.22 1028.18 1028.06 1027.96 1027.86 1027.79 1027.69 1027.46 1027.33
1017.86 1018.66 1019.48 1020.20 1020.86 1021.24 1021.84 1022.44 1022.85 1023.17 1023.46 1023.71 1024.03 1024.36 1024.72 1024.99 1025.29 1025.79 1026.12 1026.23 1026.41 1026.66 1027.21 1027.35 1027.67 1027.70 1027.81 1027.98 1028.12 1028.29 1028.35 1028.36 1028.26 1028.24 1028.23 1028.08 1027.87 1027.85 1027.71 1027.52 1027.41 1027.26 1027.11
1017.15 1017.97 1018.66 1019.37 1020.22 1021.00 1021.74 1022.68 1023.66 1023.65 1023.97 1024.18 1024.29 1024.42 1024.89 1025.18 1025.57 1026.12 1026.45 1026.66 1026.98 1027.22 1027.19 1027.21 1027.41 1027.62 1027.73 1027.84 1027.92 1028.09 1028.17 1028.16 1028.13 1028.17 1028.12 1028.04 1027.90 1027.71 1027.52 1027.43 1027.29 1027.27 1027.06
1016.39 1017.15 1017.99 1018.85 1019.61 1020.32 1021.05 1021.77 1022.70 1023.78 1024.05 1024.31 1024.53 1024.83 1025.09 1025.32 1025.85 1026.16 1026.43 1026.73 1027.02 1027.25 1027.18 1027.16 1027.26 1027.46 1027.62 1027.67 1027.75 1027.90 1027.93 1027.89 1027.96 1028.08 1028.08 1027.98 1027.74 1027.54 1027.39 1027.20 1027.09 1027.01 1026.70
1015.58 1016.41 1017.17 1018.10 1018.98 1019.84 1020.39 1021.04 1021.69 1022.53 1023.18 1023.85 1024.48 1024.75 1025.21 1025.46 1025.72 1026.14 1026.39 1026.89 1027.01 1027.24 1027.19 1027.26 1027.34 1027.38 1027.52 1027.54 1027.62 1027.68 1027.69 1027.70 1027.76 1027.78 1027.70 1027.64 1027.62 1027.68 1027.33 1026.96 1026.80 1026.66 1026.38
1014.91 1015.75 1016.55 1017.39 1018.23 1019.12 1020.03 1020.68 1021.23 1021.85 1022.49 1023.11 1023.90 1024.64 1025.04 1025.44 1025.83 1026.25 1026.53 1026.38 1026.51 1026.71 1026.96 1027.24 1027.40 1027.47 1027.49 1027.80 1027.88 1027.90 1028.01 1027.88 1027.72 1027.70 1027.74 1027.73 1027.41 1027.17 1026.93 1026.71 1026.49 1026.28 1025.95
1014.24 1014.91 1015.70 1016.41 1017.48 1018.51 1019.37 1020.18 1020.94 1021.47 1022.06 1022.77 1023.33 1023.89 1024.68 1025.37 1025.66 1025.93 1026.17 1026.33 1026.53 1026.74 1026.92 1027.07 1027.26 1027.42 1027.52 1027.61 1027.66 1027.72 1027.72 1027.65 1027.54 1027.47 1027.39 1027.30 1027.12 1027.02 1026.72 1026.42 1026.18 1025.85 1025.72
1013.43 1014.36 1015.10 1016.00 1016.85 1017.68 1018.48 1019.24 1020.07 1020.90 1021.56 1022.30 1022.87 1023.49 1024.13 1024.64 1024.98 1025.41 1025.82 1026.08 1026.37 1026.65 1026.90 1027.05 1027.24 1027.42 1027.45 1027.48 1027.53 1027.55 1027.53 1027.46 1027.44 1027.39 1027.23 1027.11 1027.01 1026.71 1026.43 1026.37 1026.20 1025.77 1025.22
1012.71 1013.68 1014.70 1015.41 1016.25 1017.01 1017.78 1018.65 1019.57 1020.44 1021.27 1022.01 1022.76 1023.51 1024.23 1024.68 1024.89 1025.26 1025.63 1026.07 1026.31 1026.56 1026.74 1027.02 1027.39 1027.53 1027.55 1027.52 1027.39 1027.46 1027.43 1027.42 1027.27 1027.19 1027.05 1026.96 1026.77 1026.50 1026.48 1026.12 1025.57 1025.21 1024.95
1012.31 1013.20 1014.27 1015.10 1015.89 1016.75 1017.63 1018.34 1019.16 1019.98 1020.90 1021.72 1022.73 1023.43 1024.00 1024.32 1024.69 1025.06 1025.54 1025.89 1026.20 1026.46 1026.62 1026.89 1027.29 1027.43 1027.30 1027.36 1027.29 1027.36 1027.30 1027.16 1027.10 1027.12 1026.95 1026.75 1026.52 1026.25 1025.98 1025.64 1025.30 1024.99 1024.65
1011.86 1012.75 1013.86 1014.78 1015.66 1016.40 1017.14 1018.02 1018.81 1019.62 1020.56 1021.41 1022.46 1023.04 1023.52 1023.82 1024.26 1024.82 1025.23 1025.62 1026.04 1026.31 1026.55 1026.76 1026.93 1027.12 1027.12 1027.08 1027.12 1027.10 1027.11 1027.04 1027.03 1027.00 1026.82 1026.51 1026.15 1025.92 1025.66 1025.34 1025.08 1024.74 1024.42
1011.64 1012.53 1013.69 1014.51 1015.43 1016.13 1016.98 1017.58 1018.50 1019.32 1020.25 1021.11 1021.92 1022.68 1023.13 1023.43 1023.94 1024.47 1024.93 1025.44 1025.82 1026.08 1026.30 1026.52 1026.60 1026.71 1026.79 1026.75 1026.73 1026.74 1026.78 1026.85 1026.78 1026.63 1026.38 1026.03 1025.77 1025.49 1025.19 1024.88 1024.57 1024.20 1023.77
1011.57 1012.41 1013.34 1014.32 1015.03 1015.74 1016.44 1017.22 1018.07 1019.05 1020.00 1020.74 1021.62 1022.09 1022.62 1023.08 1023.58 1024.08 1024.59 1025.07 1025.49 1025.76 1026.03 1026.25 1026.34 1026.43 1026.48 1026.55 1026.55 1026.59 1026.64 1026.42 1026.25 1026.04 1025.84 1025.41 1025.04 1024.83 1024.65 1024.42 1024.11 1023.75 1023.31
Thickness
5597 5597 5597 5597 5595 5598 5591 5592 5592 5591 5593 5595 5593 5593 5592 5590 5588 5586 5586 5586 5582 5576 5574 5571 5567 5565 5562 5559 5554 5551 5549 5545 5543 5528 5525 5521 5521 5519 5518 5514 5511 5509 5506
5589 5593 5594 5592 5589 5586 5582 5582 5582 5581 5584 5585 5584 5584 5583 5583 5581 5581 5578 5575 5570 5565 5562 5560 5558 5554 5548 5545 5542 5538 5532 5531 5532 5525 5516 5516 5514 5513 5512 5508 5504 5500 5500
5586 5584 5583 5581 5581 5577 5576 5578 5578 5576 5579 5576 5576 5576 5576 5574 5573 5570 5569 5567 5563 5557 5554 5550 5547 5545 5540 5534 5529 5525 5521 5519 5518 5517 5510 5506 5504 5500 5500 5497 5497 5494 5491
5581 5579 5579 5576 5575 5571 5572 5575 5574 5572 5568 5567 5566 5564 5563 5561 5559 5560 5556 5553 5551 5548 5542 5541 5539 5535 5530 5524 5516 5512 5509 5508 5506 5503 5499 5494 5490 5488 5487 5486 5483 5482 5480
5578 5575 5573 5574 5569 5562 5562 5565 5562 5563 5560 5555 5553 5555 5552 5551 5550 5549 5545 5539 5535 5531 5528 5524 5523 5520 5518 5513 5510 5504 5500 5494 5494 5492 5489 5485 5484 5484 5480 5474 5474 5472 5474
5575 5571 5567 5564 5557 5557 5561 5561 5560 5556 5553 5550 5548 5545 5542 5540 5540 5537 5538 5533 5527 5524 5518 5516 5511 5508 5507 5504 5502 5497 5495 5489 5486 5482 5478 5477 5475 5475 5467 5464 5461 5463 5465
5572 5567 5563 5559 5555 5555 5558 5557 5553 5553 5553 5547 5539 5535 5531 5528 5527 5526 5524 5523 5521 5517 5510 5505 5502 5498 5495 5496 5489 5485 5481 5476 5473 5474 5471 5469 5464 5458 5454 5451 5453 5452 5453
5571 5566 5563 5560 5558 5558 5556 5551 5550 5548 5542 5535 5528 5526 5523 5522 5518 5516 5514 5516 5509 5504 5501 5497 5496 5488 5482 5481 5483 5476 5473 5470 5467 5463 5458 5452 5448 5445 5442 5441 5440 5440 5439
5573 5569 5564 5559 5555 5552 5548 5546 5543 5539 5534 5528 5521 5519 5518 5513 5510 5510 5510 5504 5497 5492 5489 5490 5483 5478 5471 5471 5471 5471 5468 5464 5456 5449 5444 5439 5436 5433 5431 5430 5433 5429 5427
5573 5568 5563 5559 5554 5548 5542 5537 5533 5528 5522 5517 5515 5514 5510 5507 5500 5497 5497 5495 5491 5487 5483 5476 5468 5467 5466 5466 5466 5463 5459 5452 5444 5439 5436 5432 5428 5427 5422 5421 5418 5415 5407
5566 5561 5556 5551 5547 5542 5536 5530 5526 5522 5517 5513 5510 5507 5505 5501 5494 5490 5488 5488 5483 5477 5471 5466 5464 5460 5459 5457 5454 5451 5446 5439 5431 5430 5427 5425 5424 5421 5416 5410 5404 5399 5393
5560 5554 5549 5545 5539 5535 5531 5526 5521 5516 5513 5509 5505 5501 5497 5493 5488 5484 5479 5475 5470 5469 5464 5460 5457 5452 5449 5446 5442 5438 5431 5427 5425 5423 5420 5416 5414 5410 5405 5399 5394 5388 5382
5558 5551 5545 5538 5531 5526 5523 5519 5515 5511 5508 5505 5501 5497 5491 5485 5480 5474 5470 5466 5462 5461 5457 5450 5446 5442 5437 5433 5430 5427 5422 5420 5415 5412 5409 5406 5401 5396 5391 5386 5381 5376 5370
5557 5549 5543 5538 5531 5525 5520 5515 5511 5507 5504 5499 5495 5491 5485 5479 5474 5467 5462 5457 5453 5450 5445 5442 5437 5433 5428 5424 5421 5416 5413 5410 5407 5404 5400 5395 5390 5386 5380 5375 5370 5366 5360
5556 5549 5542 5535 5529 5525 5520 5514 5510 5505 5500 5495 5490 5486 5480 5475 5469 5462 5456 5452 5448 5443 5436 5432 5427 5424 5420 5416 5412 5408 5405 5402 5399 5395 5390 5385 5381 5375 5371 5366 5361 5356 5351
5558 5550 5544 5538 5529 5522 5516 5506 5496 5493 5489 5485 5481 5477 5471 5465 5458 5451 5445 5439 5433 5428 5426 5423 5419 5415 5411 5408 5405 5401 5397 5394 5390 5385 5381 5376 5371 5367 5362 5357 5351 5345 5340
5560 5553 5546 5537 5529 5521 5514 5507 5499 5487 5482 5476 5471 5465 5460 5455 5448 5442 5436 5430 5424 5419 5417 5415 5412 5407 5403 5401 5398 5394 5391 5387 5382 5377 5372 5366 5363 5359 5353 5347 5342 5338 5337
5562 5553 5546 5536 5528 5519 5514 5507 5500 5490 5481 5472 5463 5457 5451 5445 5441 5433 5427 5420 5416 5410 5408 5405 5402 5399 5396 5393 5391 5388 5384 5380 5375 5370 5365 5360 5354 5347 5342 5340 5337 5335 5335
5559 5551 5543 5534 5526 5517 5508 5502 5495 5488 5480 5470 5459 5449 5442 5436 5430 5423 5417 5415 5411 5407 5401 5396 5392 5389 5387 5382 5380 5376 5372 5369 5366 5361 5355 5349 5346 5341 5336 5335 5333 5333 5333
5559 5551 5543 5536 5525 5513 5504 5495 5487 5480 5472 5463 5455 5447 5436 5426 5421 5416 5411 5406 5401 5397 5393 5389 5385 5382 5379 5376 5373 5370 5366 5363 5359 5354 5350 5344 5339 5333 5332 5331 5330 5331 5329
5559 5550 5540 5531 5521 5511 5502 5493 5484 5474 5465 5456 5448 5439 5430 5422 5417 5411 5404 5399 5394 5389 5384 5380 5377 5374 5372 5369 5366 5363 5360 5356 5351 5347 5342 5336 5331 5330 5329 5327 5326 5328 5332
5558 5548 5536 5526 5516 5507 5497 5488 5477 5466 5457 5447 5438 5428 5418 5411 5408 5403 5397 5391 5386 5381 5377 5373 5370 5367 5364 5362 5359 5356 5352 5348 5344 5340 5335 5330 5327 5327 5324 5325 5328 5330 5330
5553 5543 5530 5519 5510 5499 5488 5479 5468 5459 5448 5438 5425 5417 5410 5405 5401 5396 5390 5384 5379 5375 5371 5369 5364 5361 5359 5356 5353 5349 5346 5343 5338 5332 5328 5325 5324 5323 5323 5325 5326 5327 5327
5549 5539 5525 5514 5502 5491 5481 5469 5459 5450 5439 5428 5417 5411 5405 5402 5397 5391 5384 5379 5374 5371 5368 5364 5360 5356 5353 5351 5347 5344 5341 5337 5332 5327 5323 5322 5322 5321 5321 5322 5322 5323 5324
5543 5532 5518 5507 5493 5483 5470 5461 5449 5440 5430 5421 5414 5406 5402 5399 5393 5387 5380 5375 5372 5369 5365 5360 5357 5354 5350 5347 5344 5341 5337 5333 5329 5324 5321 5320 5319 5319 5320 5320 5321 5322 5324
5536 5525 5513 5499 5487 5475 5463 5452 5443 5436 5426 5418 5410 5406 5401 5396 5391 5385 5380 5375 5370 5366 5362 5358 5354 5351 5347 5343 5340 5336 5333 5331 5327 5324 5321 5320 5319 5319 5318 5318 5319 5320 5321